[[{"header":{"parameterUnit":"m.s-1","parameterCategory":2,"la1":30.2991,"la2":30.254,"lo1":-89.0895,"lo2":-89.0444,"dy":0.0017,"dx":0.0017,"nx":28,"ny":28,"refTime":"2023-09-21T09:00:00:Z","depth":"0","parameterNumber":2,"parameterNumberName":"U-component_of_CURRENTS"},"data":[0,0,0,0,0,0,0,0,0,0,0,0,0,0,0,0,0,0,0,0,0,0,0,0,0,0,0,0,0,0,0,0,0,0,0,0,0,0,0,0,0,0,0,0,0,0,0,0,0,0,0,0,0,0,0,0,0,0,0.2652,0.2652,0,0.2632,0.2631,0.2631,0.2585,0.2585,0.2584,0.2583,0.2555,0.2555,0.2555,0,0,0,0,0,0,0,0,0,0,0,0,0,0.2657,0.2656,0.2652,0.2652,0.2652,0.2632,0.2631,0.2631,0.2585,0.2585,0.2584,0.2583,0.2555,0.2555,0.2555,0,0,0,0,0,0,0,0,0,0,0,0,0,0.2644,0.2656,0.2652,0.2629,0.2627,0.2632,0.2631,0.2631,0.2586,0.2585,0.2584,0.2583,0.2555,0.2555,0.2555,0.2573,0,0,0.2554,0.2554,0,0,0,0,0,0,0,0,0.2645,0.2644,0.2632,0.2631,0.2629,0.2613,0.2623,0.2612,0.2586,0.2598,0.2583,0.2582,0.2577,0.2574,0.2568,0.2571,0.257,0.2554,0.2554,0.2554,0.2554,0,0,0,0,0,0,0,0.2646,0.2644,0.264,0.2633,0.263,0.2623,0.2619,0.262,0.259,0.2597,0.2594,0.2598,0.2575,0.2569,0.2567,0.257,0.2554,0.2554,0.2554,0.2554,0.2626,0.2628,0,0,0,0,0,0,0.2656,0.2645,0.2641,0.264,0.2638,0.2624,0.262,0.2616,0.259,0.2586,0.2598,0.2596,0.2569,0.2568,0.2566,0.2612,0.2554,0.2553,0.2553,0.2624,0.2627,0.2629,0,0,0,0,0,0,0.2656,0.2655,0.2642,0.2645,0.2643,0.2625,0.2621,0.2616,0.2615,0.2592,0.2587,0.2602,0.2569,0.2567,0.2587,0.261,0.2553,0.2553,0.2622,0.2625,0.2628,0.2688,0,0,0,0,0,0,0.2656,0.2655,0.2662,0.2646,0.2644,0.2658,0.2622,0.2617,0.2619,0.2615,0.2594,0.259,0.2568,0.2588,0.2587,0.2609,0.2553,0.2619,0.2623,0.2627,0.2684,0.2693,0.2701,0,0,0,0,0,0.2656,0.2667,0.2662,0.2662,0.2651,0.266,0.2658,0.2639,0.2621,0.2631,0.2622,0.2591,0.2612,0.259,0.2588,0.261,0.2617,0.2622,0.2627,0.268,0.2691,0.2701,0,0,0,0,0,0,0.2675,0.2663,0.2657,0.2665,0.267,0.2653,0.2661,0.2649,0.2649,0.2646,0.2616,0.2613,0.2644,0.2626,0.2602,0.2646,0.261,0.2615,0.2651,0.2662,0.267,0.268,0.2553,0,0,0,0,0,0.2684,0.2689,0.2681,0.2694,0.2694,0.2681,0.2683,0.2675,0.2671,0.2668,0.2654,0.265,0.2663,0.266,0.2669,0.2688,0.2691,0.2704,0.2713,0.272,0.273,0.2763,0.2775,0.2645,0.2644,0.2644,0,0,0.2698,0.2694,0.2698,0.27,0.2696,0.2707,0.2678,0.2691,0.2705,0.2668,0.2683,0.2686,0.268,0.2707,0.2718,0.269,0.2762,0.2726,0.2732,0.2738,0.2769,0.2781,0.2793,0.2648,0.2647,0.2647,0,0,0.2728,0.2722,0.2734,0.2737,0.2743,0.2739,0.2747,0.274,0.2739,0.2761,0.2747,0.2768,0.2768,0.2774,0.2776,0.2841,0.2816,0.2841,0.2879,0.2911,0.2921,0.2931,0.2959,0.297,0.2833,0.2833,0.2833,0,0.2745,0.2752,0.2744,0.2754,0.2759,0.2756,0.277,0.2779,0.2784,0.2795,0.2776,0.2811,0.2803,0.2844,0.2865,0.286,0.2872,0.2834,0.2921,0.293,0.2938,0.2965,0.2977,0.2837,0.2836,0.2836,0.2836,0,0.2782,0.2784,0.2793,0.2801,0.2812,0.2827,0.2834,0.2852,0.2851,0.2858,0.2902,0.2902,0.2917,0.2923,0.291,0.2971,0.296,0.2936,0.2889,0.2955,0.2979,0.299,0.2842,0.284,0.2839,0.2839,0,0,0.2799,0.2815,0.2811,0.2813,0.2832,0.2838,0.2878,0.2906,0.2928,0.2948,0.2977,0.3012,0.3013,0.3018,0.3011,0.3034,0.3105,0.301,0.301,0.3031,0.3179,0.3104,0.3109,0.3093,0.3095,0.3097,0.3174,0,0.2821,0.2842,0.2849,0.2867,0.2872,0.2885,0.2917,0.2948,0.2972,0.3005,0.3029,0.3056,0.3049,0.3054,0.3088,0.3099,0.3136,0.3086,0.312,0.3121,0.3039,0.312,0.2943,0.2992,0.3185,0.3187,0.3188,0,0.283,0.2844,0.2863,0.2879,0.2883,0.2903,0.2942,0.2974,0.3033,0.3051,0.3099,0.3112,0.3167,0.3138,0.3215,0.3183,0.3197,0.3203,0.3205,0.3121,0.3066,0.2957,0.3004,0.2927,0.3204,0.3203,0.3202,0,0.2806,0.2836,0.2849,0.2854,0.2888,0.2905,0.2932,0.2988,0.3013,0.3082,0.3109,0.3176,0.3203,0.3243,0.3274,0.3245,0.3351,0.3303,0.3259,0.3254,0.3103,0.308,0.3069,0.3371,0.3371,0.3371,0.337,0,0.2789,0.2787,0.2839,0.2835,0.2859,0.2893,0.2924,0.2965,0.3025,0.3062,0.313,0.3167,0.3231,0.3293,0.3309,0.333,0.3386,0.329,0.3276,0.312,0.3099,0.3022,0.2982,0.3373,0.3373,0.3372,0.3372,0,0.2717,0.2756,0.2766,0.2819,0.2837,0.2848,0.2899,0.2922,0.2999,0.3051,0.3073,0.3174,0.3253,0.3324,0.3391,0.3364,0.3283,0.3385,0.3199,0.3162,0.2994,0.2963,0.286,0.2777,0.3325,0.3324,0.3323,0,0.2671,0.2677,0.2736,0.2743,0.2758,0.2789,0.281,0.289,0.2917,0.3044,0.306,0.3173,0.3247,0.3339,0.331,0.3342,0.3256,0.3169,0.3073,0.2981,0.2939,0.285,0.2781,0.2907,0.2903,0.2899,0.2896,0,0.2591,0.2622,0.2635,0.2658,0.2679,0.2696,0.2738,0.2762,0.2862,0.2924,0.3003,0.3083,0.3188,0.3132,0.3183,0.3166,0.2981,0.3093,0.3045,0.2656,0.2512,0.2424,0.2872,0.2864,0.2867,0.287,0.2872,0.2873,0.2532,0.2522,0.2554,0.2554,0.258,0.2586,0.257,0.263,0.2674,0.2735,0.2864,0.2918,0.2932,0.2968,0.2946,0.2755,0.2789,0.2617,0.2606,0.2541,0.2392,0.2773,0.2716,0.2719,0.2721,0.2722,0.2724,0,0.2447,0.2443,0.2444,0.2444,0.2417,0.2469,0.2495,0.2464,0.2477,0.258,0.2627,0.2605,0.2559,0.2557,0.2408,0.2285,0.2191,0.2203,0.2039,0.201,0.2386,0.2299,0.209,0.209,0.209,0.2091,0.2091,0.2091,0.2408,0.2365,0.2354,0.2279,0.2272,0.2213,0.2205,0.2196,0.2235,0.2221,0.2202,0.2235,0.2293,0.2177,0.2015,0.1951,0.1808,0.1685,0.1747,0.201,0.2047,0.2083,0.1993,0.1724,0.1724,0.1262,0.1258,0.1255]},{"header":{"parameterUnit":"m.s-1","parameterCategory":2,"la1":30.2991,"la2":30.254,"lo1":-89.0895,"lo2":-89.0444,"dy":0.0017,"dx":0.0017,"nx":28,"ny":28,"refTime":"2023-09-21T09:00:00:Z","depth":"0","parameterNumber":3,"parameterNumberName":"V-component_of_CURRENTS"},"data":[0,0,0,0,0,0,0,0,0,0,0,0,0,0,0,0,0,0,0,0,0,0,0,0,0,0,0,0,0,0,0,0,0,0,0,0,0,0,0,0,0,0,0,0,0,0,0,0,0,0,0,0,0,0,0,0,0,0,-0.0125,-0.0125,0,-0.0145,-0.0145,-0.0145,-0.0153,-0.0153,-0.0153,-0.0153,-0.0199,-0.02,-0.0201,0,0,0,0,0,0,0,0,0,0,0,0,0,-0.0099,-0.01,-0.0125,-0.0125,-0.0125,-0.0145,-0.0145,-0.0145,-0.0153,-0.0153,-0.0153,-0.0153,-0.0198,-0.02,-0.0201,0,0,0,0,0,0,0,0,0,0,0,0,0,-0.0114,-0.01,-0.0125,-0.0132,-0.0132,-0.0145,-0.0145,-0.0145,-0.0153,-0.0153,-0.0153,-0.0153,-0.0198,-0.02,-0.0201,-0.0214,0,0,-0.0207,-0.0208,0,0,0,0,0,0,0,0,-0.0113,-0.0115,-0.013,-0.0131,-0.0132,-0.0146,-0.0153,-0.017,-0.0153,-0.0145,-0.0153,-0.0153,-0.0184,-0.0187,-0.019,-0.0217,-0.0219,-0.0207,-0.0209,-0.0209,-0.021,0,0,0,0,0,0,0,-0.0112,-0.0114,-0.0133,-0.0131,-0.0132,-0.0136,-0.0137,-0.0156,-0.0165,-0.0146,-0.0146,-0.0149,-0.0184,-0.0188,-0.0191,-0.0219,-0.0207,-0.0209,-0.021,-0.0211,-0.0284,-0.0284,0,0,0,0,0,0,-0.011,-0.0113,-0.0132,-0.0133,-0.0122,-0.0136,-0.0138,-0.0142,-0.0164,-0.0167,-0.0149,-0.0149,-0.0185,-0.0189,-0.0193,-0.0213,-0.0209,-0.0211,-0.0212,-0.0283,-0.0284,-0.0285,0,0,0,0,0,0,-0.0109,-0.0111,-0.0131,-0.0123,-0.0126,-0.0137,-0.014,-0.0142,-0.0145,-0.0166,-0.017,-0.015,-0.0185,-0.019,-0.0218,-0.0215,-0.0212,-0.0214,-0.0282,-0.0283,-0.0284,-0.0251,0,0,0,0,0,0,-0.0108,-0.0111,-0.0114,-0.0123,-0.0127,-0.0139,-0.0141,-0.0143,-0.0147,-0.0148,-0.0169,-0.0173,-0.0185,-0.0215,-0.022,-0.0217,-0.0215,-0.0281,-0.0282,-0.0284,-0.0251,-0.0251,-0.0251,0,0,0,0,0,-0.0107,-0.0111,-0.0114,-0.0116,-0.013,-0.0139,-0.0141,-0.0148,-0.0147,-0.015,-0.017,-0.0172,-0.0228,-0.0217,-0.0222,-0.022,-0.028,-0.0282,-0.0284,-0.0251,-0.0251,-0.0251,0,0,0,0,0,0,-0.0105,-0.0112,-0.0116,-0.0123,-0.013,-0.014,-0.0143,-0.0147,-0.0164,-0.0164,-0.0183,-0.0189,-0.0212,-0.0227,-0.0215,-0.0249,-0.0254,-0.0257,-0.0228,-0.0228,-0.0227,-0.0202,-0.0217,0,0,0,0,0,-0.0105,-0.0111,-0.0117,-0.0126,-0.0125,-0.0133,-0.0138,-0.0142,-0.0157,-0.0163,-0.0178,-0.02,-0.0224,-0.0234,-0.0257,-0.0274,-0.0269,-0.0279,-0.0279,-0.0278,-0.0263,-0.027,-0.0268,-0.029,-0.029,-0.029,0,0,-0.011,-0.0113,-0.0119,-0.0126,-0.013,-0.0126,-0.0136,-0.0141,-0.014,-0.0167,-0.0174,-0.02,-0.023,-0.025,-0.0261,-0.0261,-0.0268,-0.028,-0.0279,-0.0265,-0.0271,-0.0269,-0.0266,-0.0292,-0.0291,-0.0291,0,0,-0.0113,-0.0121,-0.0119,-0.0118,-0.0121,-0.0126,-0.0126,-0.0133,-0.0138,-0.0154,-0.0174,-0.0198,-0.023,-0.0248,-0.0263,-0.0277,-0.0269,-0.0287,-0.026,-0.0267,-0.0264,-0.0262,-0.0239,-0.0235,-0.0284,-0.0284,-0.0284,0,-0.0115,-0.0109,-0.0122,-0.011,-0.0104,-0.0122,-0.0109,-0.0121,-0.0139,-0.0139,-0.0154,-0.0196,-0.0226,-0.0243,-0.0251,-0.0274,-0.0265,-0.0254,-0.0263,-0.0261,-0.0259,-0.0237,-0.0233,-0.0283,-0.0283,-0.0283,-0.0283,0,-0.0107,-0.0098,-0.0095,-0.0086,-0.0086,-0.008,-0.0089,-0.0095,-0.0105,-0.0113,-0.0132,-0.0175,-0.0195,-0.0216,-0.0238,-0.0242,-0.0235,-0.0262,-0.0255,-0.0254,-0.0232,-0.0228,-0.0281,-0.0281,-0.0282,-0.0282,0,0,-0.0102,-0.0091,-0.0084,-0.0065,-0.0065,-0.0059,-0.0064,-0.0063,-0.0048,-0.0084,-0.0068,-0.0128,-0.0144,-0.0162,-0.0195,-0.0205,-0.0191,-0.0222,-0.0223,-0.0183,-0.0177,-0.017,-0.0165,-0.0215,-0.0215,-0.0214,-0.016,0,-0.0081,-0.005,-0.0054,-0.0022,-0.0,-0.0013,-0.0008,-0.0014,-0.0023,-0.0017,-0.0063,-0.0071,-0.0126,-0.0131,-0.0153,-0.0182,-0.0182,-0.0201,-0.0198,-0.0197,-0.0178,-0.0162,-0.014,-0.009,-0.0156,-0.0156,-0.0155,0,-0.0046,-0.0032,0.0006,0.0034,0.0044,0.0055,0.0077,0.008,0.0072,0.0064,0.0042,0.0009,-0.0019,-0.0065,-0.0102,-0.0109,-0.0135,-0.0158,-0.0157,-0.0157,-0.0184,-0.0107,-0.0081,-0.018,-0.0149,-0.015,-0.015,0,-0.0001,0.0024,0.0058,0.0068,0.0085,0.0102,0.0109,0.0111,0.0134,0.0122,0.0142,0.0088,0.0084,0.0027,-0.0033,-0.0064,-0.0052,-0.0106,-0.0118,-0.0117,-0.01,-0.0099,-0.0154,-0.0118,-0.0118,-0.0119,-0.0119,0,0.0049,0.0083,0.0085,0.011,0.016,0.0151,0.0205,0.0203,0.0219,0.0271,0.0195,0.0225,0.0108,0.0091,0.0016,-0.0022,-0.0016,-0.0095,-0.0103,-0.0088,-0.0087,-0.0175,-0.0237,-0.0117,-0.0117,-0.0117,-0.0118,0,0.0118,0.0115,0.0162,0.0178,0.0191,0.0233,0.0277,0.0315,0.0316,0.0384,0.0385,0.0344,0.0323,0.0228,0.0157,0.0062,-0.0039,-0.0006,0.0034,0.0028,-0.0109,-0.017,-0.0218,-0.026,-0.0021,-0.0021,-0.0021,0,0.0158,0.0186,0.0224,0.0261,0.0278,0.0327,0.0368,0.0371,0.0419,0.047,0.0517,0.0505,0.0533,0.043,0.0263,0.0156,0.0032,0.0069,-0.0008,-0.0096,-0.017,-0.0226,-0.0263,0.0037,0.0038,0.0038,0.0039,0,0.0232,0.0245,0.0283,0.0354,0.0404,0.0461,0.0519,0.0566,0.0594,0.0663,0.0748,0.0777,0.0679,0.057,0.0391,0.0284,-0.0006,0.0078,-0.0029,-0.0135,-0.0182,-0.0232,-0.0004,0.0045,0.0044,0.0044,0.0044,0.0043,0.0289,0.0333,0.0379,0.0454,0.0514,0.059,0.0646,0.072,0.0821,0.0939,0.0946,0.1045,0.0831,0.0593,0.0426,0.009,0.0065,-0.0031,-0.0093,-0.0138,-0.0199,0.0057,0.0095,0.0094,0.0094,0.0094,0.0094,0,0.035,0.0398,0.0473,0.0554,0.0631,0.0644,0.0744,0.0809,0.0945,0.1098,0.1202,0.1189,0.0948,0.0645,0.0191,-0.0045,-0.0152,-0.0183,-0.0268,-0.0297,-0.0073,-0.0093,-0.0075,-0.0075,-0.0075,-0.0075,-0.0075,-0.0075,0.038,0.0462,0.05,0.0634,0.0695,0.0786,0.0843,0.0959,0.1082,0.128,0.1381,0.1428,0.1182,0.0406,-0.0127,-0.0252,-0.042,-0.0445,-0.054,-0.0406,-0.0397,-0.0389,-0.0424,-0.0476,-0.0476,-0.0736,-0.0738,-0.074]}],[{"header":{"parameterUnit":"m.s-1","parameterCategory":2,"la1":30.2991,"la2":30.254,"lo1":-89.0895,"lo2":-89.0444,"dy":0.0017,"dx":0.0017,"nx":28,"ny":28,"refTime":"2023-09-21T09:00:00:Z","depth":"2","parameterNumber":2,"parameterNumberName":"U-component_of_CURRENTS"},"data":[0,0,0,0,0,0,0,0,0,0,0,0,0,0,0,0,0,0,0,0,0,0,0,0,0,0,0,0,0,0,0,0,0,0,0,0,0,0,0,0,0,0,0,0,0,0,0,0,0,0,0,0,0,0,0,0,0,0,0.202,0.2021,0,0.2075,0.2076,0.2076,0.2072,0.2072,0.2071,0.2071,0.2056,0.2056,0.2056,0,0,0,0,0,0,0,0,0,0,0,0,0,0.1962,0.1962,0.202,0.2021,0.2022,0.2075,0.2076,0.2076,0.2072,0.2072,0.2071,0.2071,0.2056,0.2056,0.2056,0,0,0,0,0,0,0,0,0,0,0,0,0,0.1996,0.1963,0.202,0.2029,0.2031,0.2075,0.2076,0.2076,0.2073,0.2072,0.2071,0.207,0.2056,0.2056,0.2056,0.2072,0,0,0.2056,0.2056,0,0,0,0,0,0,0,0,0.1994,0.1997,0.2027,0.2029,0.2031,0.2069,0.205,0.2072,0.2073,0.2053,0.2071,0.207,0.2056,0.2057,0.2065,0.2071,0.207,0.2056,0.2056,0.2056,0.2056,0,0,0,0,0,0,0,0.1991,0.1996,0.2039,0.2028,0.2031,0.2048,0.2051,0.2054,0.2055,0.2055,0.2056,0.2067,0.2056,0.2065,0.2064,0.207,0.2056,0.2056,0.2056,0.2057,0.2113,0.2114,0,0,0,0,0,0,0.199,0.1993,0.2037,0.2041,0.2014,0.205,0.2053,0.2055,0.2056,0.2057,0.2068,0.2067,0.2065,0.2064,0.2064,0.2103,0.2056,0.2057,0.2057,0.2111,0.2113,0.2114,0,0,0,0,0,0,0.1988,0.1993,0.2035,0.2021,0.2028,0.2051,0.2054,0.2056,0.2065,0.2067,0.2066,0.2074,0.2064,0.2063,0.2067,0.2101,0.2057,0.2057,0.2109,0.2112,0.2114,0.2168,0,0,0,0,0,0,0.1986,0.1991,0.2007,0.2021,0.2029,0.2056,0.2055,0.2058,0.2075,0.2074,0.2072,0.207,0.2064,0.2067,0.2067,0.21,0.2057,0.2108,0.211,0.2113,0.2164,0.2171,0.2178,0,0,0,0,0,0.1983,0.2007,0.2006,0.2013,0.2044,0.2057,0.2062,0.2074,0.2076,0.2078,0.208,0.207,0.2084,0.2067,0.2067,0.2102,0.2106,0.211,0.2113,0.2161,0.217,0.2178,0,0,0,0,0,0,0.1995,0.201,0.2009,0.2037,0.2043,0.2057,0.208,0.2078,0.2084,0.2094,0.2078,0.2077,0.2095,0.209,0.2071,0.2128,0.2098,0.2102,0.2135,0.2143,0.215,0.2148,0.2057,0,0,0,0,0,0.2004,0.2016,0.2028,0.2046,0.2057,0.2067,0.2081,0.2087,0.2093,0.2096,0.2097,0.2105,0.2111,0.2117,0.2122,0.2147,0.2148,0.2174,0.218,0.2186,0.2186,0.2232,0.2243,0.2125,0.2125,0.2125,0,0,0.2006,0.2023,0.2026,0.2049,0.2062,0.2079,0.2072,0.21,0.2115,0.2094,0.2123,0.2124,0.212,0.215,0.216,0.2149,0.2218,0.219,0.2195,0.2191,0.2237,0.2248,0.2258,0.2127,0.2127,0.2126,0,0,0.2024,0.204,0.2058,0.2068,0.2098,0.2104,0.2109,0.2131,0.2145,0.2166,0.2162,0.2178,0.219,0.2201,0.2204,0.2251,0.2248,0.2262,0.2301,0.2347,0.2357,0.2366,0.2372,0.2381,0.2272,0.2272,0.2272,0,0.2032,0.2053,0.2064,0.2089,0.2105,0.2112,0.2132,0.215,0.2169,0.2187,0.2182,0.2218,0.2216,0.2248,0.2268,0.2266,0.2281,0.2269,0.2356,0.2365,0.2373,0.2377,0.2386,0.2275,0.2275,0.2275,0.2274,0,0.2049,0.2079,0.2095,0.2119,0.2136,0.2158,0.218,0.2207,0.2226,0.2238,0.2279,0.2285,0.2307,0.2317,0.2305,0.2368,0.2354,0.2354,0.2334,0.2388,0.2389,0.2397,0.228,0.2279,0.2278,0.2277,0,0,0.2035,0.2092,0.2101,0.2117,0.2157,0.2165,0.2213,0.2244,0.2273,0.2305,0.2343,0.2366,0.2379,0.2384,0.2388,0.2424,0.2489,0.2421,0.2422,0.2424,0.2573,0.251,0.2512,0.2516,0.2518,0.252,0.2546,0,0.2045,0.2094,0.2121,0.2154,0.2179,0.2208,0.2239,0.2274,0.231,0.2352,0.2381,0.2414,0.2404,0.2427,0.2466,0.2481,0.2517,0.248,0.2522,0.2523,0.2459,0.2523,0.2316,0.2318,0.2555,0.2556,0.2557,0,0.205,0.2089,0.2126,0.2177,0.2189,0.2206,0.2261,0.2299,0.2364,0.2396,0.2449,0.2467,0.2521,0.2512,0.2575,0.2558,0.2575,0.2581,0.2583,0.251,0.2476,0.2305,0.2325,0.2571,0.257,0.2569,0.2568,0,0.2025,0.2089,0.2116,0.2129,0.2185,0.2212,0.2252,0.2315,0.2351,0.2441,0.2473,0.2533,0.2577,0.2614,0.2638,0.262,0.2702,0.2677,0.2629,0.2623,0.2445,0.242,0.2734,0.2734,0.2734,0.2733,0.2733,0,0.2016,0.204,0.2106,0.2117,0.215,0.2206,0.2252,0.2306,0.2383,0.2424,0.2501,0.254,0.2614,0.2663,0.2669,0.2679,0.2736,0.2642,0.2638,0.2456,0.2434,0.265,0.264,0.2734,0.2734,0.2734,0.2734,0,0.1969,0.2016,0.2042,0.2108,0.2137,0.2161,0.2247,0.2276,0.2369,0.2436,0.2468,0.2567,0.2629,0.2678,0.2741,0.2715,0.2727,0.2719,0.2483,0.2451,0.2599,0.2592,0.2648,0.2646,0.2645,0.2644,0.2643,0,0.1945,0.196,0.2019,0.204,0.2069,0.2128,0.2164,0.226,0.2295,0.2434,0.2451,0.2557,0.2585,0.265,0.2649,0.2651,0.2711,0.2451,0.2376,0.2606,0.2597,0.2591,0.2586,0.2152,0.2147,0.2143,0.214,0,0.1897,0.1912,0.1937,0.1981,0.2016,0.2049,0.2119,0.2136,0.2251,0.2289,0.2351,0.2392,0.2491,0.2403,0.2445,0.2417,0.243,0.2367,0.2694,0.2212,0.2143,0.2132,0.2142,0.2104,0.2107,0.211,0.2112,0.2114,0.185,0.1854,0.1888,0.1914,0.1951,0.1959,0.1956,0.201,0.203,0.2071,0.2182,0.2177,0.2226,0.2169,0.2114,0.2091,0.2251,0.213,0.2141,0.2156,0.21,0.2033,0.1961,0.1963,0.1966,0.1968,0.197,0,0.1784,0.1805,0.1827,0.1834,0.1815,0.1879,0.1905,0.1856,0.1825,0.1891,0.1907,0.1769,0.1728,0.1791,0.1701,0.1704,0.1678,0.1626,0.1563,0.1601,0.1635,0.155,0.1266,0.1263,0.1261,0.1259,0,0,0.1759,0.1745,0.1755,0.1697,0.1708,0.1653,0.165,0.1587,0.159,0.1519,0.151,0.1639,0.1726,0.1466,0.1438,0.1331,0.1451,0.128,0.1848,0.1811,0.1841,0.1934,0.1848,0,0,0,0,0]},{"header":{"parameterUnit":"m.s-1","parameterCategory":2,"la1":30.2991,"la2":30.254,"lo1":-89.0895,"lo2":-89.0444,"dy":0.0017,"dx":0.0017,"nx":28,"ny":28,"refTime":"2023-09-21T09:00:00:Z","depth":"2","parameterNumber":3,"parameterNumberName":"V-component_of_CURRENTS"},"data":[0,0,0,0,0,0,0,0,0,0,0,0,0,0,0,0,0,0,0,0,0,0,0,0,0,0,0,0,0,0,0,0,0,0,0,0,0,0,0,0,0,0,0,0,0,0,0,0,0,0,0,0,0,0,0,0,0,0,0.014,0.0139,0,0.0107,0.0107,0.0106,0.0078,0.0078,0.0077,0.0077,0.0045,0.0044,0.0044,0,0,0,0,0,0,0,0,0,0,0,0,0,0.0152,0.0153,0.014,0.0139,0.0139,0.0107,0.0107,0.0106,0.0078,0.0078,0.0077,0.0077,0.0045,0.0044,0.0044,0,0,0,0,0,0,0,0,0,0,0,0,0,0.0136,0.0153,0.014,0.0121,0.0119,0.0107,0.0107,0.0106,0.0078,0.0078,0.0077,0.0077,0.0045,0.0044,0.0044,0.0049,0,0,0.0041,0.0041,0,0,0,0,0,0,0,0,0.0137,0.0136,0.0124,0.0122,0.012,0.0096,0.0099,0.0087,0.0078,0.0094,0.0077,0.0076,0.0062,0.006,0.0055,0.0048,0.0046,0.0041,0.0041,0.004,0.004,0,0,0,0,0,0,0,0.0139,0.0137,0.0127,0.0124,0.0121,0.0105,0.0103,0.0097,0.0082,0.0093,0.009,0.0086,0.0061,0.0056,0.0054,0.0046,0.0041,0.004,0.004,0.004,0.004,0.004,0,0,0,0,0,0,0.0144,0.0138,0.0128,0.0126,0.0127,0.0105,0.0102,0.0104,0.0082,0.0078,0.0087,0.0085,0.0058,0.0055,0.0053,0.0065,0.004,0.004,0.0039,0.0039,0.004,0.004,0,0,0,0,0,0,0.0145,0.0144,0.013,0.0131,0.0128,0.0106,0.0108,0.0104,0.0099,0.0077,0.0073,0.0086,0.0057,0.0054,0.0057,0.0064,0.0039,0.0039,0.0039,0.0039,0.004,0.0085,0,0,0,0,0,0,0.0145,0.0144,0.0144,0.0132,0.0128,0.0133,0.0108,0.0104,0.0097,0.0094,0.0075,0.0071,0.0057,0.0059,0.0056,0.0062,0.0038,0.0038,0.0039,0.004,0.0083,0.0088,0.0091,0,0,0,0,0,0.0146,0.0154,0.0144,0.0143,0.013,0.0134,0.0131,0.0113,0.0098,0.0105,0.0091,0.0072,0.0062,0.0059,0.0056,0.0062,0.0038,0.0039,0.004,0.0082,0.0087,0.0091,0,0,0,0,0,0,0.0161,0.0152,0.0141,0.0146,0.0143,0.0129,0.013,0.0117,0.0111,0.0105,0.0083,0.008,0.0084,0.0068,0.0065,0.0064,0.0045,0.0045,0.0077,0.0082,0.0086,0.0099,0.0037,0,0,0,0,0,0.0164,0.0168,0.0158,0.0163,0.0162,0.0145,0.0142,0.0132,0.0124,0.012,0.0104,0.0089,0.0086,0.0081,0.0075,0.0077,0.0058,0.0077,0.0081,0.0084,0.0093,0.0067,0.0069,0.0044,0.0044,0.0044,0,0,0.0177,0.0167,0.0172,0.0166,0.016,0.0169,0.0143,0.0144,0.0151,0.0119,0.012,0.0105,0.0091,0.0095,0.0094,0.0082,0.0082,0.0086,0.0089,0.0096,0.0068,0.007,0.0073,0.0044,0.0044,0.0044,0,0,0.0202,0.0191,0.0203,0.0202,0.0193,0.0186,0.0189,0.0176,0.0169,0.0171,0.015,0.0143,0.013,0.0123,0.0119,0.0142,0.0107,0.0133,0.0161,0.0135,0.0137,0.0138,0.0121,0.0121,0.0131,0.0131,0.0131,0,0.0212,0.0224,0.0209,0.0218,0.0221,0.0198,0.0217,0.021,0.0198,0.0199,0.0178,0.0163,0.0146,0.0158,0.0162,0.0151,0.0131,0.0145,0.014,0.0141,0.0142,0.0124,0.0123,0.0134,0.0133,0.0133,0.0133,0,0.0256,0.0254,0.0263,0.0267,0.0272,0.0284,0.0276,0.0275,0.0257,0.0247,0.0247,0.0222,0.0212,0.0202,0.0189,0.0189,0.0173,0.0151,0.0129,0.0147,0.0127,0.0125,0.0137,0.0136,0.0135,0.0135,0,0,0.0297,0.0294,0.0294,0.0301,0.0298,0.0312,0.0323,0.0331,0.0343,0.0316,0.0329,0.0309,0.0283,0.0276,0.0251,0.0227,0.0211,0.0192,0.0189,0.0177,0.0158,0.0142,0.0138,0.0183,0.0183,0.0183,0.0143,0,0.0331,0.0356,0.0347,0.0377,0.0391,0.0377,0.0396,0.0398,0.0387,0.0392,0.0359,0.0361,0.0315,0.0311,0.0278,0.0234,0.0207,0.0224,0.014,0.0138,0.0123,0.0136,0.0152,0.0117,0.0141,0.0141,0.014,0,0.0373,0.0382,0.0417,0.0428,0.0436,0.0453,0.0478,0.0493,0.049,0.048,0.0462,0.0434,0.0409,0.0361,0.0284,0.0294,0.0231,0.0187,0.0184,0.0154,0.0119,0.0102,0.0112,0.0136,0.0137,0.0137,0.0137,0,0.0412,0.0427,0.0457,0.0464,0.0482,0.0497,0.051,0.0518,0.0542,0.0536,0.0546,0.05,0.0485,0.04,0.0303,0.029,0.0213,0.0183,0.0111,0.011,0.01,0.0098,0.0124,0.0124,0.0124,0.0124,0.0124,0,0.0447,0.0467,0.0476,0.0497,0.0542,0.0539,0.0588,0.059,0.0609,0.0651,0.0594,0.0611,0.0491,0.0431,0.0329,0.0219,0.0227,0.0124,0.0099,0.0117,0.0117,0.0113,0.0112,0.0123,0.0123,0.0123,0.0124,0,0.0478,0.0482,0.0521,0.0548,0.0559,0.0595,0.0639,0.0674,0.0681,0.0733,0.0737,0.0694,0.0617,0.0494,0.0364,0.0263,0.0155,0.0111,0.0145,0.0125,0.0062,0.0064,0.0031,0.003,0.0029,0.0029,0.0028,0,0.0494,0.0517,0.0565,0.0593,0.0604,0.0651,0.0688,0.0709,0.0752,0.0791,0.0824,0.0768,0.0741,0.0544,0.0361,0.0186,0.0156,0.0076,0.0053,0.0074,0.0053,0.0056,0.0059,0.006,0.006,0.0059,0.0059,0,0.0528,0.0547,0.0581,0.0642,0.0683,0.074,0.079,0.0838,0.088,0.0922,0.0964,0.0947,0.077,0.0596,0.035,0.0228,0.0105,0.0067,0.008,0.0081,0.0098,0.0078,0.0081,0.0058,0.0058,0.0058,0.0058,0.0058,0.0557,0.0584,0.0631,0.0688,0.0743,0.0816,0.087,0.0933,0.1013,0.1071,0.1058,0.1026,0.084,0.0523,0.0316,0.0092,0.0104,0.0017,0.0019,0.0021,0.0031,0.0046,-0.0002,-0.0002,-0.0002,-0.0002,-0.0002,0,0.059,0.0618,0.067,0.0741,0.0804,0.083,0.0932,0.099,0.1086,0.112,0.1144,0.0961,0.0772,0.0548,0.0223,0.0033,0.0018,-0.0036,-0.001,-0.0006,-0.0004,0.0006,-0.0034,-0.0035,-0.0035,-0.0036,0,0,0.0606,0.0655,0.0676,0.0773,0.0826,0.0915,0.0976,0.1065,0.1118,0.1146,0.112,0.1079,0.0831,0.0589,0.0337,0.0148,0.0109,0.0106,0.0153,0.0218,0.0223,0.0051,0.0073,0,0,0,0,0]}],[{"header":{"parameterUnit":"m.s-1","parameterCategory":2,"la1":30.2991,"la2":30.254,"lo1":-89.0895,"lo2":-89.0444,"dy":0.0017,"dx":0.0017,"nx":28,"ny":28,"refTime":"2023-09-21T09:00:00:Z","depth":"4","parameterNumber":2,"parameterNumberName":"U-component_of_CURRENTS"},"data":[0,0,0,0,0,0,0,0,0,0,0,0,0,0,0,0,0,0,0,0,0,0,0,0,0,0,0,0,0,0,0,0,0,0,0,0,0,0,0,0,0,0,0,0,0,0,0,0,0,0,0,0,0,0,0,0,0,0,0.1127,0.1128,0,0.1171,0.1171,0.1171,0.1215,0.1216,0.1216,0.1217,0.1273,0.1273,0.1274,0,0,0,0,0,0,0,0,0,0,0,0,0,0.1074,0.1074,0.1127,0.1128,0.1128,0.117,0.1171,0.1172,0.1215,0.1216,0.1216,0.1217,0.1272,0.1273,0.1274,0,0,0,0,0,0,0,0,0,0,0,0,0,0.1104,0.1075,0.1127,0.1155,0.1158,0.117,0.1171,0.1172,0.1215,0.1216,0.1217,0.1217,0.1272,0.1273,0.1275,0.1264,0,0,0.1279,0.1279,0,0,0,0,0,0,0,0,0.1103,0.1106,0.1151,0.1153,0.1157,0.1189,0.1173,0.1203,0.1214,0.1193,0.1217,0.1218,0.1245,0.1249,0.1254,0.1267,0.1269,0.1279,0.128,0.128,0.1281,0,0,0,0,0,0,0,0.11,0.1105,0.1144,0.1151,0.1155,0.1163,0.1169,0.1179,0.1213,0.1195,0.1198,0.1203,0.1247,0.1253,0.1256,0.127,0.1279,0.128,0.1281,0.1281,0.1351,0.1352,0,0,0,0,0,0,0.1096,0.1103,0.1142,0.1145,0.1132,0.1163,0.1169,0.1177,0.1213,0.1219,0.1203,0.1205,0.125,0.1254,0.1258,0.1319,0.128,0.1281,0.1282,0.135,0.1352,0.1353,0,0,0,0,0,0,0.1094,0.1099,0.1141,0.1125,0.1131,0.1163,0.1172,0.1177,0.1208,0.1219,0.1226,0.123,0.1251,0.1256,0.1292,0.1319,0.1282,0.1283,0.1349,0.1351,0.1352,0.1396,0,0,0,0,0,0,0.1093,0.1098,0.1113,0.1125,0.1132,0.1165,0.1171,0.1178,0.1209,0.1213,0.1244,0.1249,0.1252,0.129,0.1293,0.132,0.1284,0.1348,0.135,0.1352,0.1393,0.1399,0.1403,0,0,0,0,0,0.1091,0.1101,0.1114,0.1119,0.1148,0.1166,0.1171,0.1195,0.1209,0.1226,0.125,0.1249,0.1305,0.1292,0.1295,0.1323,0.1347,0.1349,0.1351,0.1391,0.1397,0.1403,0,0,0,0,0,0,0.1087,0.1107,0.1121,0.1139,0.116,0.1174,0.1196,0.1208,0.1239,0.1254,0.1261,0.1268,0.1309,0.1308,0.1294,0.1349,0.1326,0.1329,0.1354,0.1361,0.1366,0.1367,0.1285,0,0,0,0,0,0.1092,0.1107,0.1127,0.1144,0.116,0.1183,0.1198,0.1216,0.1238,0.1254,0.1274,0.1297,0.1316,0.1334,0.1349,0.1378,0.1385,0.1398,0.1404,0.1408,0.1412,0.1451,0.146,0.136,0.136,0.136,0,0,0.1092,0.1108,0.1116,0.1145,0.1168,0.119,0.1195,0.1228,0.1251,0.1254,0.1301,0.1317,0.1327,0.1363,0.1382,0.1371,0.144,0.1411,0.1415,0.1416,0.1455,0.1464,0.1473,0.1362,0.1362,0.1362,0,0,0.1095,0.1122,0.1137,0.116,0.1199,0.1213,0.1227,0.1258,0.1283,0.132,0.1331,0.1366,0.1394,0.1411,0.1419,0.1461,0.1465,0.1469,0.1501,0.1539,0.1548,0.1555,0.1575,0.1584,0.1474,0.1474,0.1474,0,0.1101,0.1121,0.1144,0.117,0.1194,0.1225,0.125,0.1275,0.1314,0.1338,0.1344,0.1404,0.1415,0.1456,0.1473,0.1474,0.1492,0.1476,0.1547,0.1554,0.1561,0.158,0.1589,0.1476,0.1476,0.1476,0.1476,0,0.111,0.114,0.1155,0.1197,0.1223,0.1254,0.1289,0.1324,0.1357,0.138,0.1439,0.1459,0.1496,0.1505,0.1503,0.156,0.1555,0.1547,0.1531,0.1574,0.1591,0.16,0.148,0.1479,0.1478,0.1478,0,0,0.1095,0.115,0.1161,0.1186,0.1246,0.1264,0.1313,0.1359,0.1395,0.1443,0.1489,0.153,0.1555,0.1566,0.1576,0.1607,0.167,0.1604,0.1605,0.1624,0.1752,0.1639,0.1637,0.1683,0.1685,0.1686,0.1743,0,0.1104,0.1146,0.1175,0.1222,0.1249,0.1298,0.1336,0.1386,0.1431,0.1483,0.1525,0.1574,0.1574,0.1604,0.1638,0.1661,0.1697,0.1655,0.1707,0.1708,0.1602,0.1645,0.1692,0.175,0.1752,0.1753,0.1754,0,0.1106,0.1136,0.118,0.1239,0.1258,0.1293,0.1367,0.1408,0.1486,0.1524,0.1587,0.1619,0.1682,0.1672,0.1748,0.1726,0.1748,0.176,0.1763,0.1647,0.1611,0.1698,0.1771,0.1769,0.1768,0.1767,0.1766,0,0.1078,0.114,0.1174,0.1197,0.1267,0.1305,0.1353,0.1429,0.1471,0.1564,0.1604,0.1677,0.1728,0.1769,0.1805,0.1789,0.1877,0.1854,0.1773,0.1765,0.1831,0.1822,0.1914,0.1914,0.1914,0.1913,0.1913,0,0.1067,0.1101,0.1168,0.1189,0.1237,0.13,0.1364,0.142,0.1505,0.1554,0.1634,0.1675,0.1761,0.1815,0.1831,0.1828,0.1906,0.1783,0.1775,0.1847,0.184,0.1837,0.1828,0.1915,0.1915,0.1915,0.1914,0,0.103,0.1076,0.1116,0.1194,0.1225,0.1264,0.1365,0.1404,0.1499,0.1566,0.1601,0.1701,0.1767,0.183,0.1899,0.1853,0.1864,0.1848,0.1924,0.1919,0.1718,0.171,0.1748,0.1744,0.1742,0.1739,0.1737,0,0.101,0.1028,0.1108,0.1135,0.1177,0.1247,0.1292,0.1392,0.1432,0.1561,0.158,0.1685,0.174,0.1743,0.1818,0.1844,0.1829,0.1818,0.1757,0.1714,0.1703,0.17,0.1696,0.1732,0.1732,0.1731,0.173,0,0.097,0.1007,0.1039,0.1093,0.1143,0.1181,0.1258,0.1272,0.1382,0.1482,0.1517,0.1552,0.1625,0.167,0.1714,0.1727,0.1808,0.1787,0.1792,0.1735,0.1696,0.1687,0.1687,0.172,0.1721,0.1722,0.1723,0,0.0942,0.0952,0.1,0.1038,0.1091,0.1098,0.1143,0.1188,0.1236,0.1374,0.1384,0.1496,0.1602,0.1611,0.1646,0.1655,0.1624,0.156,0.1577,0.1589,0.1511,0.1437,0.138,0,0,0,0,0,0.0906,0.0914,0.0943,0.0966,0.101,0.1041,0.1111,0.1156,0.126,0.1246,0.1309,0.1366,0.1415,0.1476,0.1454,0.1583,0.1635,0.155,0.157,0.1663,0.1675,0.1599,0,0,0,0,0,0,0.0884,0.0914,0.0918,0.0897,0.0902,0.0934,0.0972,0.1038,0.1035,0.1152,0.1187,0.1283,0.1357,0.1418,0.143,0.1449,0.1432,0.1628,0.1624,0.1657,0.1667,0.1677,0.1603,0,0,0,0,0]},{"header":{"parameterUnit":"m.s-1","parameterCategory":2,"la1":30.2991,"la2":30.254,"lo1":-89.0895,"lo2":-89.0444,"dy":0.0017,"dx":0.0017,"nx":28,"ny":28,"refTime":"2023-09-21T09:00:00:Z","depth":"4","parameterNumber":3,"parameterNumberName":"V-component_of_CURRENTS"},"data":[0,0,0,0,0,0,0,0,0,0,0,0,0,0,0,0,0,0,0,0,0,0,0,0,0,0,0,0,0,0,0,0,0,0,0,0,0,0,0,0,0,0,0,0,0,0,0,0,0,0,0,0,0,0,0,0,0,0,0.0193,0.0193,0,0.0182,0.0182,0.0182,0.0166,0.0166,0.0165,0.0165,0.0148,0.0147,0.0147,0,0,0,0,0,0,0,0,0,0,0,0,0,0.0184,0.0184,0.0193,0.0193,0.0193,0.0182,0.0182,0.0182,0.0166,0.0166,0.0165,0.0165,0.0148,0.0147,0.0147,0,0,0,0,0,0,0,0,0,0,0,0,0,0.0182,0.0184,0.0193,0.0183,0.0182,0.0182,0.0182,0.0182,0.0166,0.0166,0.0165,0.0165,0.0148,0.0147,0.0147,0.0156,0,0,0.0147,0.0146,0,0,0,0,0,0,0,0,0.0182,0.0183,0.0185,0.0184,0.0182,0.0175,0.0173,0.0173,0.0166,0.0173,0.0165,0.0164,0.0156,0.0155,0.0155,0.0155,0.0154,0.0146,0.0146,0.0146,0.0146,0,0,0,0,0,0,0,0.0182,0.0183,0.0189,0.0184,0.0183,0.0174,0.0173,0.0173,0.0167,0.0172,0.0171,0.0169,0.0155,0.0155,0.0154,0.0154,0.0147,0.0146,0.0146,0.0146,0.016,0.016,0,0,0,0,0,0,0.0184,0.0183,0.0189,0.0189,0.0181,0.0174,0.0174,0.0178,0.0168,0.0165,0.0169,0.0168,0.0156,0.0155,0.0154,0.017,0.0146,0.0146,0.0146,0.0159,0.016,0.016,0,0,0,0,0,0,0.0184,0.0185,0.019,0.0185,0.0185,0.0175,0.018,0.0178,0.0178,0.0166,0.0163,0.0172,0.0155,0.0154,0.016,0.0169,0.0146,0.0146,0.0159,0.0159,0.016,0.0199,0,0,0,0,0,0,0.0184,0.0186,0.0191,0.0185,0.0185,0.0196,0.018,0.0178,0.0178,0.0176,0.0167,0.0165,0.0155,0.016,0.016,0.0168,0.0146,0.0158,0.0159,0.016,0.0197,0.0201,0.0204,0,0,0,0,0,0.0184,0.0197,0.0191,0.0192,0.0192,0.0196,0.0196,0.0187,0.0179,0.0184,0.0179,0.0165,0.0165,0.0161,0.016,0.0169,0.0158,0.0159,0.016,0.0196,0.02,0.0204,0,0,0,0,0,0,0.0198,0.0197,0.019,0.0202,0.02,0.0193,0.0199,0.0191,0.0191,0.019,0.0175,0.0173,0.0181,0.0171,0.0166,0.0175,0.0158,0.0159,0.0185,0.019,0.0193,0.0198,0.0145,0,0,0,0,0,0.0203,0.0212,0.0206,0.0216,0.0216,0.0207,0.0208,0.0203,0.0201,0.02,0.0191,0.0185,0.0185,0.0184,0.0182,0.019,0.0168,0.0193,0.0197,0.02,0.0203,0.0181,0.0183,0.0164,0.0164,0.0164,0,0,0.0213,0.0212,0.0218,0.022,0.0217,0.0225,0.0207,0.0213,0.0221,0.0199,0.0208,0.0199,0.0191,0.02,0.0201,0.0192,0.0193,0.0202,0.0204,0.0206,0.0183,0.0184,0.0186,0.0165,0.0165,0.0165,0,0,0.0237,0.0235,0.0249,0.0248,0.0246,0.0243,0.0246,0.0241,0.024,0.0248,0.0234,0.0232,0.0231,0.0226,0.0224,0.0246,0.0215,0.0243,0.0265,0.0244,0.0245,0.0246,0.0217,0.0215,0.0244,0.0244,0.0244,0,0.0246,0.0261,0.0254,0.0263,0.0267,0.0253,0.0268,0.0268,0.0265,0.0268,0.0257,0.0253,0.0244,0.0254,0.026,0.0255,0.0233,0.025,0.0248,0.0249,0.0249,0.0219,0.0216,0.0246,0.0245,0.0245,0.0245,0,0.0277,0.0287,0.0296,0.0303,0.0308,0.0319,0.0316,0.0321,0.0316,0.0311,0.0316,0.0302,0.0298,0.0294,0.0285,0.0285,0.0266,0.0256,0.0237,0.0253,0.022,0.0217,0.0249,0.0248,0.0247,0.0247,0,0,0.0303,0.0315,0.0318,0.0327,0.0329,0.034,0.0356,0.0365,0.0377,0.0365,0.0375,0.0369,0.0352,0.0348,0.0331,0.0312,0.0292,0.0286,0.0284,0.0257,0.0237,0.0219,0.0213,0.028,0.028,0.028,0.0212,0,0.0327,0.0353,0.0355,0.0384,0.0396,0.0392,0.041,0.0417,0.0414,0.0419,0.0399,0.0402,0.0376,0.0375,0.0351,0.0311,0.0285,0.0311,0.0226,0.0223,0.0205,0.0209,0.0279,0.0209,0.0208,0.0207,0.0207,0,0.0353,0.0368,0.0401,0.0423,0.043,0.0448,0.0471,0.0488,0.0488,0.0484,0.0474,0.0453,0.0432,0.0404,0.0336,0.0352,0.0299,0.026,0.0256,0.0224,0.0199,0.019,0.02,0.02,0.0201,0.0201,0.0202,0,0.0372,0.0399,0.0428,0.0436,0.0461,0.048,0.0497,0.0508,0.0528,0.0526,0.0529,0.0495,0.0482,0.0415,0.0334,0.0333,0.0249,0.0236,0.0166,0.0164,0.0182,0.0182,0.0181,0.0182,0.0182,0.0182,0.0182,0,0.0389,0.0413,0.0441,0.0458,0.0501,0.0509,0.0552,0.0561,0.0577,0.0603,0.0565,0.0565,0.0484,0.0426,0.0345,0.0245,0.0253,0.0169,0.0147,0.02,0.0202,0.0179,0.018,0.0179,0.018,0.018,0.0181,0,0.0397,0.0416,0.0454,0.0492,0.051,0.0542,0.0592,0.0618,0.0628,0.0657,0.0659,0.0618,0.0542,0.0447,0.0337,0.0263,0.0167,0.0127,0.0187,0.0169,0.009,0.0094,0.0041,0.004,0.0039,0.0039,0.0038,0,0.0401,0.0422,0.048,0.051,0.053,0.0579,0.0615,0.0644,0.0671,0.0688,0.07,0.0643,0.06,0.0429,0.0325,0.0164,0.0139,0.0082,0.0088,0.0093,0.0077,0.0082,0.0087,0.0036,0.0036,0.0036,0.0035,0,0.041,0.0435,0.0468,0.0529,0.0574,0.0627,0.0676,0.0699,0.0735,0.0744,0.0728,0.0646,0.0558,0.0428,0.0304,0.0189,0.0117,0.0071,0.0072,0.0077,0.0086,0.0072,0.0078,0.0032,0.0033,0.0033,0.0033,0,0.042,0.0441,0.049,0.0541,0.0602,0.0656,0.0683,0.0713,0.0743,0.0758,0.0751,0.066,0.0615,0.044,0.0326,0.0211,0.0178,0.0132,0.013,0.0132,0.0178,0.0203,0.0167,0,0,0,0,0,0.0426,0.0451,0.0497,0.0557,0.0616,0.0654,0.0717,0.0739,0.0772,0.0764,0.076,0.0678,0.0515,0.0446,0.0327,0.0297,0.0151,0.0151,0.0096,0.0013,0.0017,0.0054,0,0,0,0,0,0,0.0432,0.0475,0.0493,0.056,0.06,0.067,0.0712,0.0736,0.073,0.0745,0.0661,0.0633,0.0475,0.0582,0.032,0.0286,0.0231,0.0081,0.0078,0.0011,0.0015,0.0018,0.0057,0,0,0,0,0]}]]